• In Deutschland
  • Länderverzeichnis
  • Für 7 Tage
  • Wassertemperatur
  • Satellitenkarten
  • Wetterkarte
  • Widgets
  • user-avatar
    Anmelden

    Stündliche Wetter Tbilissi

    Heute, 23 Mai, Mittwoch

    Zeit Temperatur Niederschläge Wind Luftdruck Luftfeuchtigkeit
    00:00 +16°C° 0 mm 2 m/S 705 mmHg 66%
    01:00 +15°C° 0 mm 2 m/S 705 mmHg 66%
    02:00 +15°C° 0 mm 2 m/S 704 mmHg 65%
    03:00 +15°C° 0 mm 2 m/S 704 mmHg 64%
    04:00 +15°C° 0 mm 2 m/S 704 mmHg 64%
    05:00 +16°C° 0 mm 2 m/S 704 mmHg 63%
    06:00 +16°C° 0 mm 2 m/S 705 mmHg 63%
    07:00 +18°C° 0 mm 2 m/S 705 mmHg 55%
    08:00 +20°C° 0 mm 2 m/S 705 mmHg 47%
    09:00 +24°C° 0 mm 3 m/S 706 mmHg 39%
    10:00 +25°C° 0 mm 4 m/S 705 mmHg 37%
    11:00 +25°C° 0 mm 4 m/S 705 mmHg 35%
    12:00 +26°C° 0 mm 4 m/S 705 mmHg 33%
    13:00 +27°C° 0 mm 4 m/S 705 mmHg 33%
    14:00 +27°C° 0 mm 4 m/S 705 mmHg 32%
    15:00 +27°C° 0 mm 4 m/S 704 mmHg 31%
    16:00 +26°C° 0 mm 4 m/S 704 mmHg 34%
    17:00 +25°C° 0 mm 3 m/S 704 mmHg 37%
    18:00 +25°C° 0 mm 2 m/S 704 mmHg 41%
    19:00 +21°C° 0 mm 2 m/S 704 mmHg 41%
    20:00 +19°C° 0 mm 3 m/S 704 mmHg 42%
    21:00 +17°C° 0 mm 3 m/S 704 mmHg 43%
    22:00 +16°C° 0 mm 2 m/S 704 mmHg 43%
    23:00 +15°C° 0 mm 2 m/S 704 mmHg 44%

    Morgen, 24 Mai, Donnerstag

    Zeit Temperatur Niederschläge Wind Luftdruck Luftfeuchtigkeit
    00:00 +15°C° 0 mm 2 m/S 704 mmHg 44%
    01:00 +15°C° 0 mm 2 m/S 704 mmHg 44%
    02:00 +14°C° 0 mm 2 m/S 703 mmHg 44%
    03:00 +14°C° 0 mm 2 m/S 703 mmHg 44%
    04:00 +14°C° 0 mm 2 m/S 703 mmHg 45%
    05:00 +15°C° 0 mm 2 m/S 703 mmHg 47%
    06:00 +15°C° 0 mm 2 m/S 703 mmHg 49%
    07:00 +18°C° 0 mm 2 m/S 703 mmHg 41%
    08:00 +20°C° 0 mm 2 m/S 703 mmHg 34%
    09:00 +24°C° 0 mm 2 m/S 703 mmHg 27%
    10:00 +25°C° 0 mm 2 m/S 703 mmHg 25%
    11:00 +26°C° 0 mm 3 m/S 703 mmHg 24%
    12:00 +27°C° 0 mm 3 m/S 702 mmHg 23%
    13:00 +27°C° 0 mm 3 m/S 702 mmHg 23%
    14:00 +27°C° 0 mm 3 m/S 702 mmHg 23%
    15:00 +28°C° 0 mm 4 m/S 701 mmHg 24%
    16:00 +27°C° 0 mm 3 m/S 701 mmHg 28%
    17:00 +26°C° 0 mm 3 m/S 700 mmHg 32%
    18:00 +25°C° 0 mm 2 m/S 700 mmHg 37%
    19:00 +21°C° 0 mm 2 m/S 700 mmHg 37%
    20:00 +19°C° 0 mm 2 m/S 700 mmHg 36%
    21:00 +16°C° 0 mm 2 m/S 700 mmHg 36%
    22:00 +16°C° 0 mm 2 m/S 700 mmHg 36%
    23:00 +15°C° 0 mm 2 m/S 700 mmHg 36%

    übermorgen, 25 Mai, Freitag

    Zeit Temperatur Niederschläge Wind Luftdruck Luftfeuchtigkeit
    00:00 +15°C° 0 mm 2 m/S 699 mmHg 36%
    01:00 +15°C° 0 mm 2 m/S 699 mmHg 37%
    02:00 +14°C° 0 mm 2 m/S 699 mmHg 38%
    03:00 +14°C° 0 mm 2 m/S 699 mmHg 39%
    04:00 +15°C° 0 mm 2 m/S 699 mmHg 43%
    05:00 +16°C° 0 mm 2 m/S 699 mmHg 46%
    06:00 +16°C° 0 mm 2 m/S 699 mmHg 49%
    07:00 +20°C° 0 mm 1 m/S 699 mmHg 43%
    08:00 +22°C° 0 mm 1 m/S 699 mmHg 37%
    09:00 +25°C° 0 mm 1 m/S 699 mmHg 32%
    10:00 +26°C° 0 mm 1 m/S 699 mmHg 30%
    11:00 +27°C° 0 mm 2 m/S 699 mmHg 29%
    12:00 +28°C° 0 mm 2 m/S 699 mmHg 28%
    13:00 +29°C° 0 mm 2 m/S 699 mmHg 28%
    14:00 +29°C° 0 mm 2 m/S 698 mmHg 28%
    15:00 +29°C° 0 mm 2 m/S 698 mmHg 28%
    16:00 +28°C° 0,1 mm 2 m/S 698 mmHg 33%
    17:00 +27°C° 0,1 mm 1 m/S 698 mmHg 39%
    18:00 +27°C° 0,1 mm 1 m/S 698 mmHg 44%
    19:00 +24°C° 0,1 mm 1 m/S 698 mmHg 47%
    20:00 +21°C° 0,1 mm 2 m/S 698 mmHg 51%
    21:00 +19°C° 0,1 mm 2 m/S 699 mmHg 54%
    22:00 +18°C° 0 mm 2 m/S 699 mmHg 57%
    23:00 +18°C° 0 mm 2 m/S 699 mmHg 60%

    26 Mai, Samstag

    Zeit Temperatur Niederschläge Wind Luftdruck Luftfeuchtigkeit
    00:00 +17°C° 0 mm 2 m/S 699 mmHg 62%
    01:00 +17°C° 0 mm 2 m/S 699 mmHg 63%
    02:00 +17°C° 0 mm 2 m/S 699 mmHg 63%
    03:00 +17°C° 0 mm 2 m/S 699 mmHg 64%
    04:00 +17°C° 0 mm 2 m/S 699 mmHg 64%
    05:00 +19°C° 0 mm 1 m/S 699 mmHg 63%
    06:00 +19°C° 0 mm 1 m/S 699 mmHg 63%
    07:00 +21°C° 0 mm 1 m/S 699 mmHg 58%
    08:00 +23°C° 0 mm 1 m/S 700 mmHg 53%
    09:00 +25°C° 0 mm 2 m/S 700 mmHg 48%
    10:00 +26°C° 0 mm 1 m/S 700 mmHg 45%
    11:00 +28°C° 0 mm 1 m/S 700 mmHg 41%
    12:00 +29°C° 0 mm 1 m/S 700 mmHg 37%
    13:00 +30°C° 0 mm 1 m/S 700 mmHg 37%
    14:00 +30°C° 0 mm 1 m/S 700 mmHg 36%
    15:00 +30°C° 0 mm 1 m/S 700 mmHg 36%
    16:00 +29°C° 0,1 mm 1 m/S 700 mmHg 41%
    17:00 +28°C° 0,1 mm 1 m/S 701 mmHg 46%
    18:00 +27°C° 0,1 mm 1 m/S 701 mmHg 51%
    19:00 +25°C° 0,4 mm 1 m/S 701 mmHg 55%
    20:00 +23°C° 0,4 mm 1 m/S 701 mmHg 60%
    21:00 +20°C° 0,4 mm 1 m/S 702 mmHg 64%
    22:00 +20°C° 0,5 mm 1 m/S 702 mmHg 67%
    23:00 +20°C° 0,5 mm 1 m/S 702 mmHg 69%

    27 Mai, Sonntag

    Zeit Temperatur Niederschläge Wind Luftdruck Luftfeuchtigkeit
    00:00 +19°C° 0,5 mm 1 m/S 702 mmHg 72%
    01:00 +19°C° 0 mm 1 m/S 702 mmHg 73%
    02:00 +18°C° 0 mm 1 m/S 702 mmHg 74%
    03:00 +18°C° 0 mm 1 m/S 702 mmHg 74%
    04:00 +18°C° 0 mm 1 m/S 703 mmHg 74%
    05:00 +19°C° 0 mm 1 m/S 703 mmHg 73%
    06:00 +19°C° 0 mm 1 m/S 704 mmHg 72%
    07:00 +19°C° 0,1 mm 2 m/S 704 mmHg 70%
    08:00 +20°C° 0,1 mm 3 m/S 704 mmHg 68%
    09:00 +21°C° 0,1 mm 3 m/S 705 mmHg 66%
    10:00 +20°C° 0,1 mm 4 m/S 705 mmHg 69%
    11:00 +20°C° 0,1 mm 4 m/S 705 mmHg 71%
    12:00 +19°C° 0,1 mm 4 m/S 705 mmHg 74%
    13:00 +19°C° 0 mm 4 m/S 705 mmHg 73%
    14:00 +19°C° 0 mm 4 m/S 705 mmHg 71%
    15:00 +19°C° 0 mm 3 m/S 705 mmHg 69%
    16:00 +18°C° 0 mm 3 m/S 705 mmHg 69%
    17:00 +18°C° 0 mm 3 m/S 705 mmHg 69%
    18:00 +18°C° 0 mm 2 m/S 705 mmHg 70%
    19:00 +17°C° 0 mm 2 m/S 706 mmHg 73%
    20:00 +16°C° 0 mm 2 m/S 706 mmHg 76%
    21:00 +16°C° 0 mm 2 m/S 706 mmHg 79%
    22:00 +15°C° 0 mm 2 m/S 707 mmHg 80%
    23:00 +15°C° 0 mm 2 m/S 707 mmHg 81%

    28 Mai, Montag

    Zeit Temperatur Niederschläge Wind Luftdruck Luftfeuchtigkeit
    00:00 +15°C° 0 mm 2 m/S 707 mmHg 81%
    01:00 +14°C° 0 mm 2 m/S 706 mmHg 82%
    02:00 +14°C° 0 mm 2 m/S 706 mmHg 83%
    03:00 +13°C° 0 mm 2 m/S 706 mmHg 83%
    04:00 +13°C° 0 mm 1 m/S 706 mmHg 82%
    05:00 +14°C° 0 mm 1 m/S 706 mmHg 80%
    06:00 +14°C° 0 mm 1 m/S 705 mmHg 79%
    07:00 +16°C° 0 mm 1 m/S 705 mmHg 72%
    08:00 +19°C° 0 mm 1 m/S 705 mmHg 66%
    09:00 +21°C° 0 mm 1 m/S 705 mmHg 60%
    10:00 +21°C° 0 mm 2 m/S 705 mmHg 55%
    11:00 +24°C° 0 mm 2 m/S 704 mmHg 51%
    12:00 +25°C° 0 mm 2 m/S 704 mmHg 47%
    13:00 +26°C° 0 mm 2 m/S 704 mmHg 46%
    14:00 +27°C° 0 mm 2 m/S 703 mmHg 44%
    15:00 +27°C° 0 mm 3 m/S 703 mmHg 43%
    16:00 +27°C° 0,1 mm 2 m/S 703 mmHg 48%
    17:00 +26°C° 0,1 mm 2 m/S 703 mmHg 53%
    18:00 +25°C° 0,1 mm 1 m/S 703 mmHg 57%
    19:00 +23°C° 0,2 mm 1 m/S 703 mmHg 62%
    20:00 +21°C° 0,2 mm 1 m/S 703 mmHg 66%
    21:00 +20°C° 0,2 mm 1 m/S 703 mmHg 70%
    22:00 +19°C° 0,1 mm 1 m/S 703 mmHg 71%
    23:00 +19°C° 0,1 mm 1 m/S 703 mmHg 73%
    Mehr zeigen